When you browse on this site, cookies collect data to enhance your experience and personalize the content and advertising you see.
Visit our Privacy Policy to learn more. By continuing to use the site, you agree to this use of cookies and data.
  • In Österreich
  • Länderverzeichnis
  • Für 7 Tage
  • Wassertemperatur
  • Wetterkarte
  • News
  • Widgets
  • user-avatar
    Anmelden

    Stündliche Wetter Igls

    Heute, 20 August, Dienstag

    Zeit Temperatur Niederschläge Wind Luftdruck Luftfeuchtigkeit
    00:00 +16°C° 0.1 mm 0 m/S 688 mmHg 97%
    01:00 +16°C° 0 mm 0 m/S 688 mmHg 98%
    02:00 +16°C° 0.3 mm 0 m/S 688 mmHg 98%
    03:00 +16°C° 0.3 mm 0 m/S 688 mmHg 98%
    04:00 +16°C° 0.3 mm 0 m/S 688 mmHg 98%
    05:00 +16°C° 0.1 mm 0 m/S 688 mmHg 98%
    06:00 +17°C° 0.1 mm 0 m/S 688 mmHg 97%
    07:00 +19°C° 0 mm 1 m/S 688 mmHg 96%
    08:00 +20°C° 0.3 mm 1 m/S 688 mmHg 93%
    09:00 +21°C° 0.3 mm 1 m/S 688 mmHg 89%
    10:00 +22°C° 0.3 mm 1 m/S 688 mmHg 86%
    11:00 +21°C° 0.7 mm 2 m/S 688 mmHg 85%
    12:00 +23°C° 0.7 mm 2 m/S 689 mmHg 83%
    13:00 +24°C° 0.7 mm 2 m/S 689 mmHg 82%
    14:00 +23°C° 1 mm 2 m/S 689 mmHg 84%
    15:00 +21°C° 1 mm 2 m/S 688 mmHg 86%
    16:00 +20°C° 1 mm 2 m/S 688 mmHg 89%
    17:00 +19°C° 0.4 mm 2 m/S 688 mmHg 91%
    18:00 +19°C° 0.4 mm 1 m/S 688 mmHg 94%
    19:00 +18°C° 0.4 mm 1 m/S 688 mmHg 97%
    20:00 +16°C° 0.4 mm 1 m/S 689 mmHg 97%
    21:00 +16°C° 0.4 mm 2 m/S 689 mmHg 98%
    22:00 +15°C° 0.4 mm 2 m/S 690 mmHg 98%
    23:00 +15°C° 0.9 mm 2 m/S 690 mmHg 98%

    Morgen, 21 August, Mittwoch

    Zeit Temperatur Niederschläge Wind Luftdruck Luftfeuchtigkeit
    00:00 +14°C° 0.9 mm 2 m/S 690 mmHg 98%
    01:00 +13°C° 0.9 mm 2 m/S 690 mmHg 98%
    02:00 +13°C° 0.9 mm 2 m/S 690 mmHg 98%
    03:00 +13°C° 0.9 mm 2 m/S 690 mmHg 98%
    04:00 +13°C° 0.9 mm 1 m/S 690 mmHg 98%
    05:00 +13°C° 0.3 mm 1 m/S 690 mmHg 98%
    06:00 +13°C° 0.3 mm 1 m/S 690 mmHg 97%
    07:00 +13°C° 0.3 mm 1 m/S 690 mmHg 97%
    08:00 +14°C° 0.1 mm 1 m/S 690 mmHg 94%
    09:00 +15°C° 0.1 mm 1 m/S 690 mmHg 92%
    10:00 +16°C° 0.1 mm 1 m/S 691 mmHg 89%
    11:00 +18°C° 0.1 mm 1 m/S 691 mmHg 84%
    12:00 +19°C° 0.1 mm 1 m/S 691 mmHg 79%
    13:00 +20°C° 0.1 mm 1 m/S 690 mmHg 75%
    14:00 +20°C° 0.2 mm 1 m/S 690 mmHg 74%
    15:00 +20°C° 0.2 mm 2 m/S 690 mmHg 73%
    16:00 +20°C° 0.2 mm 2 m/S 690 mmHg 73%
    17:00 +20°C° 0.2 mm 1 m/S 690 mmHg 80%
    18:00 +18°C° 0.2 mm 1 m/S 690 mmHg 86%
    19:00 +16°C° 0.2 mm 1 m/S 690 mmHg 93%
    20:00 +15°C° 0.2 mm 1 m/S 690 mmHg 94%
    21:00 +15°C° 0.2 mm 1 m/S 690 mmHg 95%
    22:00 +13°C° 0.2 mm 0 m/S 690 mmHg 96%
    23:00 +14°C° 0.2 mm 1 m/S 690 mmHg 95%

    übermorgen, 22 August, Donnerstag

    Zeit Temperatur Niederschläge Wind Luftdruck Luftfeuchtigkeit
    00:00 +14°C° 0.2 mm 1 m/S 690 mmHg 94%
    01:00 +15°C° 0.2 mm 1 m/S 690 mmHg 93%
    02:00 +15°C° 0.1 mm 1 m/S 689 mmHg 93%
    03:00 +15°C° 0.1 mm 1 m/S 689 mmHg 92%
    04:00 +15°C° 0.1 mm 1 m/S 689 mmHg 92%
    05:00 +15°C° 0.1 mm 0 m/S 689 mmHg 90%
    06:00 +16°C° 0.1 mm 0 m/S 690 mmHg 87%
    07:00 +16°C° 0.1 mm 0 m/S 690 mmHg 85%
    08:00 +19°C° 0.1 mm 0 m/S 690 mmHg 78%
    09:00 +23°C° 0.1 mm 1 m/S 691 mmHg 71%
    10:00 +25°C° 0.1 mm 1 m/S 691 mmHg 63%
    11:00 +25°C° 0.4 mm 1 m/S 691 mmHg 60%
    12:00 +26°C° 0.4 mm 1 m/S 691 mmHg 57%
    13:00 +27°C° 0.4 mm 1 m/S 691 mmHg 54%
    14:00 +26°C° 0.7 mm 1 m/S 691 mmHg 59%
    15:00 +26°C° 0.7 mm 2 m/S 690 mmHg 65%
    16:00 +25°C° 0.7 mm 2 m/S 690 mmHg 70%
    17:00 +23°C° 0.8 mm 1 m/S 690 mmHg 78%
    18:00 +21°C° 0.8 mm 1 m/S 690 mmHg 85%
    19:00 +20°C° 0.8 mm 1 m/S 690 mmHg 92%
    20:00 +17°C° 0.1 mm 0 m/S 690 mmHg 93%
    21:00 +16°C° 0.1 mm 0 m/S 690 mmHg 93%
    22:00 +15°C° 0.1 mm 0 m/S 690 mmHg 94%
    23:00 +15°C° 0 mm 0 m/S 690 mmHg 94%

    23 August, Freitag

    Zeit Temperatur Niederschläge Wind Luftdruck Luftfeuchtigkeit
    00:00 +15°C° 0 mm 0 m/S 690 mmHg 93%
    01:00 +15°C° 0 mm 0 m/S 690 mmHg 93%
    02:00 +15°C° 0 mm 0 m/S 690 mmHg 92%
    03:00 +15°C° 0 mm 1 m/S 690 mmHg 92%
    04:00 +15°C° 0 mm 1 m/S 689 mmHg 91%
    05:00 +16°C° 0 mm 1 m/S 690 mmHg 89%
    06:00 +19°C° 0 mm 1 m/S 690 mmHg 87%
    07:00 +18°C° 0 mm 0 m/S 690 mmHg 85%
    08:00 +22°C° 0.1 mm 1 m/S 691 mmHg 78%
    09:00 +23°C° 0.1 mm 1 m/S 691 mmHg 70%
    10:00 +25°C° 0.1 mm 1 m/S 691 mmHg 63%
    11:00 +26°C° 0.5 mm 1 m/S 691 mmHg 61%
    12:00 +26°C° 0.5 mm 1 m/S 691 mmHg 59%
    13:00 +27°C° 0.5 mm 1 m/S 691 mmHg 57%
    14:00 +26°C° 1.1 mm 1 m/S 691 mmHg 64%
    15:00 +25°C° 1.1 mm 1 m/S 690 mmHg 70%
    16:00 +24°C° 1.1 mm 1 m/S 690 mmHg 77%
    17:00 +23°C° 0.6 mm 1 m/S 690 mmHg 81%
    18:00 +22°C° 0.6 mm 1 m/S 689 mmHg 86%
    19:00 +18°C° 0.6 mm 0 m/S 689 mmHg 90%
    20:00 +18°C° 0.1 mm 0 m/S 689 mmHg 89%
    21:00 +19°C° 0.1 mm 1 m/S 689 mmHg 88%
    22:00 +19°C° 0.1 mm 1 m/S 690 mmHg 87%
    23:00 +19°C° 0 mm 1 m/S 689 mmHg 87%

    24 August, Samstag

    Zeit Temperatur Niederschläge Wind Luftdruck Luftfeuchtigkeit
    00:00 +18°C° 0 mm 1 m/S 689 mmHg 86%
    01:00 +18°C° 0 mm 1 m/S 689 mmHg 86%
    02:00 +18°C° 0 mm 1 m/S 689 mmHg 85%
    03:00 +16°C° 0 mm 1 m/S 688 mmHg 85%
    04:00 +16°C° 0 mm 1 m/S 688 mmHg 85%
    05:00 +18°C° 0 mm 1 m/S 688 mmHg 82%
    06:00 +19°C° 0 mm 1 m/S 689 mmHg 80%
    07:00 +20°C° 0 mm 1 m/S 689 mmHg 78%
    08:00 +22°C° 0 mm 1 m/S 689 mmHg 70%
    09:00 +24°C° 0 mm 1 m/S 689 mmHg 62%
    10:00 +26°C° 0 mm 1 m/S 690 mmHg 54%
    11:00 +27°C° 0.4 mm 1 m/S 690 mmHg 53%
    12:00 +27°C° 0.4 mm 1 m/S 689 mmHg 52%
    13:00 +28°C° 0.4 mm 1 m/S 689 mmHg 52%
    14:00 +27°C° 1.2 mm 1 m/S 689 mmHg 59%
    15:00 +26°C° 1.2 mm 1 m/S 688 mmHg 67%
    16:00 +25°C° 1.2 mm 1 m/S 688 mmHg 75%
    17:00 +23°C° 1 mm 1 m/S 688 mmHg 79%
    18:00 +21°C° 1 mm 1 m/S 687 mmHg 83%
    19:00 +20°C° 1 mm 1 m/S 687 mmHg 88%
    20:00 +19°C° 0 mm 1 m/S 687 mmHg 87%
    21:00 +19°C° 0 mm 1 m/S 687 mmHg 86%
    22:00 +18°C° 0 mm 1 m/S 687 mmHg 86%
    23:00 +16°C° 0 mm 1 m/S 687 mmHg 86%

    25 August, Sonntag

    Zeit Temperatur Niederschläge Wind Luftdruck Luftfeuchtigkeit
    00:00 +16°C° 0 mm 1 m/S 687 mmHg 86%
    01:00 +16°C° 0 mm 1 m/S 687 mmHg 86%
    02:00 +15°C° 0 mm 1 m/S 687 mmHg 86%
    03:00 +15°C° 0 mm 1 m/S 687 mmHg 86%
    04:00 +15°C° 0 mm 1 m/S 687 mmHg 86%
    05:00 +16°C° 0 mm 1 m/S 687 mmHg 84%
    06:00 +17°C° 0 mm 0 m/S 687 mmHg 81%
    07:00 +18°C° 0 mm 0 m/S 688 mmHg 79%
    08:00 +20°C° 0 mm 0 m/S 688 mmHg 70%
    09:00 +25°C° 0 mm 1 m/S 689 mmHg 62%
    10:00 +27°C° 0 mm 1 m/S 689 mmHg 54%
    11:00 +27°C° 0.6 mm 1 m/S 689 mmHg 53%
    12:00 +28°C° 0.6 mm 1 m/S 689 mmHg 53%
    13:00 +28°C° 0.6 mm 2 m/S 688 mmHg 53%
    14:00 +27°C° 1.2 mm 2 m/S 688 mmHg 58%
    15:00 +27°C° 1.2 mm 2 m/S 688 mmHg 64%
    16:00 +26°C° 1.2 mm 2 m/S 688 mmHg 69%
    17:00 +24°C° 1.2 mm 1 m/S 688 mmHg 76%
    18:00 +22°C° 1.2 mm 1 m/S 687 mmHg 83%
    19:00 +18°C° 1.2 mm 0 m/S 687 mmHg 90%
    20:00 +18°C° 0.2 mm 0 m/S 687 mmHg 90%
    21:00 +17°C° 0.2 mm 0 m/S 688 mmHg 90%
    22:00 +18°C° 0.2 mm 1 m/S 688 mmHg 91%
    23:00 +18°C° 0 mm 1 m/S 688 mmHg 91%
    Mehr zeigen